sat.trackr.live / text

‹ back to catalog

EUTELSAT 117 WEST B (W*)

NORAD 41589 · 2016-038B

PAYLOAD ACTIVE UNKNOWN

§ Identity

Operator
Country
EUTE
Launch date
2016-06-15
Launch site
AFETR
Launch vehicle
Mass (kg)
RCS (m²)
0.08

Purposes: comms, nav

External: N2YO · Heavens-Above · Gunter

§ Orbital elements

Epoch: 2026-09-19T15:05:17.638368Z

Period
1,436.09 min
Inclination
0.0417°
Eccentricity
0.0000205
Mean motion
1.00272017 rev/d
Perigee alt
35,785.7 km
Apogee alt
35,787.4 km
Semi-major
42,164.7 km
B*
0.0000e+0
RAAN
348.6305°
Arg perigee
277.8050°
Mean anomaly
201.4376°
Rev number
3,761

§ Raw data

EUTELSAT 117 WEST B (W*)1 41589U 16038B   26262.62867637 -.00000016  00000+0  00000+0 0  99942 41589   0.0417 348.6305 0000205 277.8050 201.4376  1.00272017 37616

JSON: /api/v1/satellites/41589 · /tle

For live sub-satellite position, see the globe view (requires WebGL).

§ Visibility from observer

Set your observer location to see the next 7 days of passes ≥ 10°. The values pass through the URL so the page stays shareable.

No JS? Fill the form by hand. The geolocation button needs JavaScript.